WA1OUI Weather Reports


time (UTC)temp
F
wind
direction
speed
knots
gust
knots
rain 1hr
in
rain 24hr
in
rain mn
in
humidity
%
barometer
mb
20260504150756 65 36 0.0 4.3 0.00 0.00 0.00 32 1009.0
20260504150253 65 25 2.6 4.3 0.00 0.00 0.00 33 1008.9
20260504141223 63 35 1.7 5.2 0.00 0.00 0.00 35 1009.4
20260504140719 63 121 3.5 4.3 0.00 0.00 0.00 35 1009.4
20260504140214 63 314 2.6 8.7 0.00 0.00 0.00 34 1009.4
20260504130643 57 90 0.0 3.5 0.00 0.00 0.00 41 1010.1
20260504130140 57 346 1.7 5.2 0.00 0.00 0.00 42 1010.2
20260504120104 51 350 1.7 2.6 0.00 0.00 0.00 57 1010.4
20260504110531 39 9 2.6 2.6 0.00 0.00 0.00 84 1010.4
20260504100453 36 359 0.9 1.7 0.00 0.00 0.00 88 1010.4
20260504081846 37 342 1.7 2.6 0.00 0.00 0.00 83 1009.8
20260504081343 37 356 1.7 1.7 0.00 0.00 0.00 83 1009.7
20260504080839 38 358 1.7 1.7 0.00 0.00 0.00 81 1009.7
20260504080336 38 339 1.7 1.7 0.00 0.00 0.00 81 1009.6
20260504070303 39 341 0.9 2.6 0.00 0.00 0.00 80 1009.7
20260504060224 39 345 1.7 1.7 0.00 0.00 0.00 79 1009.9
20260504050652 37 342 1.7 1.7 0.00 0.00 0.00 83 1009.8
20260504050149 37 341 1.7 2.6 0.00 0.00 0.00 83 1009.9
20260504045646 37 331 1.7 1.7 0.00 0.00 0.00 83 1009.8
20260504045146 37 347 1.7 2.6 0.00 0.00 0.00 83 1009.9
20260504044644 37 348 2.6 2.6 0.00 0.00 0.00 82 1009.9
20260504044140 37 344 1.7 1.7 0.00 0.00 0.00 82 1010.0
20260504043638 37 340 2.6 2.6 0.00 0.00 0.00 82 1010.1
20260504043135 37 328 1.7 1.7 0.00 0.00 0.00 81 1009.9
20260504042632 37 348 1.7 2.6 0.00 0.00 0.00 81 1010.0
20260504042129 37 343 1.7 1.7 0.00 0.00 0.00 81 1010.0
20260504041624 37 352 1.7 1.7 0.00 0.00 0.00 81 1010.0
20260504041121 37 338 1.7 2.6 0.00 0.00 0.00 80 1009.8
20260504040618 38 345 1.7 2.6 0.00 0.00 0.00 80 1009.8
20260504040115 38 341 1.7 2.6 0.00 0.00 0.00 79 1009.9
20260504035612 38 345 1.7 1.7 0.00 0.00 0.00 79 1009.9
20260504035108 38 342 1.7 1.7 0.00 0.00 0.00 79 1009.9
20260504034606 38 4 1.7 1.7 0.00 0.00 0.00 77 1009.9
20260504034103 38 354 1.7 2.6 0.00 0.00 0.00 77 1009.6
20260504033601 39 0 1.7 1.7 0.00 0.00 0.00 76 1009.8
20260504033057 39 1 1.7 2.6 0.00 0.00 0.00 76 1009.8
20260504032554 39 356 2.6 2.6 0.00 0.00 0.00 75 1009.7
20260504032051 39 343 1.7 2.6 0.00 0.00 0.00 75 1009.6
20260504031548 39 343 1.7 2.6 0.00 0.00 0.00 74 1009.6
20260504031044 39 352 1.7 2.6 0.00 0.00 0.00 73 1009.6
20260504030542 39 345 1.7 2.6 0.00 0.00 0.00 72 1009.6
20260504030038 40 342 1.7 2.6 0.00 0.00 0.00 72 1009.5
20260504025535 40 345 1.7 2.6 0.00 0.00 0.00 72 1009.6
20260504025032 40 343 1.7 1.7 0.00 0.00 0.00 72 1009.5
20260504024529 40 340 2.6 2.6 0.00 0.00 0.00 71 1009.7
20260504024026 40 337 1.7 2.6 0.00 0.00 0.00 71 1009.6
20260504023522 41 338 1.7 1.7 0.00 0.00 0.00 70 1009.6
20260504023018 41 334 1.7 1.7 0.00 0.00 0.00 69 1009.6
20260504022514 41 348 1.7 1.7 0.00 0.00 0.00 67 1009.5
20260504022011 41 347 1.7 1.7 0.00 0.00 0.00 66 1009.4
20260504021509 42 350 1.7 2.6 0.00 0.00 0.00 65 1009.5
20260504021005 42 340 1.7 1.7 0.00 0.00 0.00 64 1009.4
20260504020502 42 354 1.7 2.6 0.00 0.00 0.00 63 1009.6
20260504015959 42 352 1.7 1.7 0.00 0.00 0.00 62 1009.6
20260504015455 43 349 2.6 3.5 0.00 0.00 0.00 62 1009.4
20260504014951 43 343 1.7 2.6 0.00 0.00 0.00 61 1009.3
20260504014447 43 346 1.7 2.6 0.00 0.00 0.00 60 1009.4
20260504013944 44 342 2.6 2.6 0.00 0.00 0.00 60 1009.2
20260504013443 44 342 1.7 1.7 0.00 0.00 0.00 59 1009.2
20260504012938 44 351 1.7 1.7 0.00 0.00 0.00 57 1009.1
20260504012437 45 352 1.7 2.6 0.00 0.00 0.00 56 1009.0
20260504011934 45 337 1.7 2.6 0.00 0.00 0.00 53 1009.2
20260504011430 45 356 1.7 2.6 0.00 0.00 0.00 52 1009.1
20260504010926 45 343 1.7 2.6 0.00 0.00 0.00 52 1008.9
20260504010422 45 350 1.7 2.6 0.00 0.00 0.00 54 1008.8
20260504005919 45 347 1.7 2.6 0.00 0.00 0.00 55 1008.9
20260504005415 45 341 2.6 2.6 0.00 0.00 0.00 53 1008.8
20260504004913 45 346 2.6 2.6 0.00 0.00 0.00 56 1008.6
20260504004411 46 346 1.7 1.7 0.00 0.00 0.00 51 1008.5
20260504003907 46 343 2.6 2.6 0.00 0.00 0.00 50 1008.5
20260504003404 46 348 2.6 2.6 0.00 0.00 0.00 49 1008.3
20260504002900 46 344 1.7 2.6 0.00 0.00 0.00 48 1008.3
20260504002357 47 341 2.6 2.6 0.00 0.00 0.00 47 1008.2
20260504001855 48 335 1.7 1.7 0.00 0.00 0.00 50 1008.1
20260504001352 48 337 1.7 1.7 0.00 0.00 0.00 48 1008.0
20260504000848 48 338 1.7 1.7 0.00 0.00 0.00 49 1007.9
20260504000346 49 346 1.7 1.7 0.00 0.00 0.00 47 1008.0
20260503235843 49 332 1.7 1.7 0.00 0.00 0.00 44 1007.9
20260503235341 50 339 1.7 1.7 0.00 0.00 0.00 38 1007.7
20260503234838 50 338 1.7 2.6 0.00 0.00 0.00 40 1007.6
20260503234336 51 354 2.6 2.6 0.00 0.00 0.00 38 1007.8
20260503233833 51 353 1.7 2.6 0.00 0.00 0.00 39 1007.6
20260503233329 51 333 1.7 3.5 0.00 0.00 0.00 38 1007.6
20260503232826 51 346 1.7 3.5 0.00 0.00 0.00 38 1007.6
20260503232323 51 299 3.5 3.5 0.00 0.00 0.00 40 1007.4
20260503231821 52 344 1.7 1.7 0.00 0.00 0.00 38 1007.6
20260503231318 52 11 2.6 3.5 0.00 0.00 0.00 39 1007.4
20260503230814 52 322 1.7 2.6 0.00 0.00 0.00 37 1007.3
20260503230311 52 355 1.7 3.5 0.00 0.00 0.00 38 1007.5
20260503225809 52 2 0.9 2.6 0.00 0.00 0.00 37 1007.3
20260503225304 53 306 0.0 1.7 0.00 0.00 0.00 38 1007.2
20260503224801 53 329 1.7 1.7 0.00 0.00 0.00 37 1007.3
20260503224258 53 43 2.6 4.3 0.00 0.00 0.00 35 1007.4
20260503223755 53 357 2.6 2.6 0.00 0.00 0.00 35 1007.4
20260503223253 53 330 0.9 2.6 0.00 0.00 0.00 33 1007.4
20260503222749 53 35 1.7 4.3 0.00 0.00 0.00 34 1007.4
20260503222247 53 346 1.7 1.7 0.00 0.00 0.00 35 1007.4
20260503221745 53 23 2.6 2.6 0.00 0.00 0.00 36 1007.3
20260503221243 53 41 0.9 3.5 0.00 0.00 0.00 34 1007.3
20260503220739 53 355 1.7 2.6 0.00 0.00 0.00 34 1007.3
20260503220236 54 29 0.9 5.2 0.00 0.00 0.00 34 1007.4
20260503215733 53 341 4.3 5.2 0.00 0.00 0.00 33 1007.3
20260503215230 54 329 2.6 4.3 0.00 0.00 0.00 37 1007.4
20260503214728 54 39 1.7 9.6 0.00 0.00 0.00 32 1007.5
20260503214225 54 350 4.3 4.3 0.00 0.00 0.00 33 1007.4
20260503213723 54 3 3.5 5.2 0.00 0.00 0.00 33 1007.3
20260503213220 54 36 1.7 4.3 0.00 0.00 0.00 35 1007.5
20260503212716 54 212 1.7 5.2 0.00 0.00 0.00 34 1007.5
20260503212214 54 351 3.5 3.5 0.00 0.00 0.00 32 1007.3
20260503211712 54 39 0.9 5.2 0.00 0.00 0.00 34 1007.3
20260503211208 55 22 1.7 4.3 0.00 0.00 0.00 35 1007.3
20260503210703 55 332 3.5 7.0 0.00 0.00 0.00 33 1007.3
20260503210201 55 23 7.0 7.8 0.00 0.00 0.00 33 1007.3
20260503205655 55 352 1.7 5.2 0.00 0.00 0.00 35 1007.3
20260503205152 55 345 2.6 7.8 0.00 0.00 0.00 33 1007.2
20260503204649 55 61 1.7 3.5 0.00 0.00 0.00 32 1007.4
20260503204147 55 330 4.3 4.3 0.00 0.00 0.00 33 1007.3
20260503203643 55 1 5.2 6.1 0.00 0.00 0.00 32 1007.4
20260503203141 56 344 3.5 4.3 0.00 0.00 0.00 32 1007.4
20260503202638 56 305 3.5 7.0 0.00 0.00 0.00 32 1007.3
20260503202136 56 334 0.9 5.2 0.00 0.00 0.00 34 1007.5
20260503201634 56 95 5.2 7.0 0.00 0.00 0.00 31 1007.2
20260503201131 56 1 5.2 7.0 0.00 0.00 0.00 33 1007.5
20260503200627 55 51 2.6 5.2 0.00 0.00 0.00 38 1007.3
20260503200124 55 86 1.7 3.5 0.00 0.00 0.00 33 1007.6
20260503195621 56 358 3.5 9.6 0.00 0.00 0.00 30 1007.4
20260503195118 54 343 3.5 3.5 0.00 0.00 0.00 36 1007.2
20260503194615 54 352 0.9 4.3 0.00 0.00 0.00 33 1007.1
20260503194110 54 346 1.7 3.5 0.00 0.00 0.00 35 1007.5
20260503193607 53 340 2.6 5.2 0.00 0.00 0.00 33 1007.3
20260503193102 53 335 3.5 7.0 0.00 0.00 0.00 35 1007.4
20260503192558 53 0 3.5 5.2 0.00 0.00 0.00 36 1007.3
20260503192054 54 340 2.6 7.8 0.00 0.00 0.00 36 1007.2
20260503191551 55 20 1.7 5.2 0.00 0.00 0.00 37 1007.1
20260503191048 55 337 2.6 8.7 0.00 0.00 0.00 34 1007.3
20260503190545 56 355 2.6 6.1 0.00 0.00 0.00 31 1007.5
20260503190042 55 51 2.6 6.1 0.00 0.00 0.00 34 1007.3
20260503185538 55 40 4.3 7.8 0.00 0.00 0.00 35 1007.2
20260503185038 55 355 3.5 7.0 0.00 0.00 0.00 31 1007.3
20260503184534 56 306 2.6 8.7 0.00 0.00 0.00 32 1007.2
20260503184031 55 10 5.2 7.0 0.00 0.00 0.00 31 1007.5
20260503183528 56 11 3.5 7.8 0.00 0.00 0.00 32 1007.2
20260503183025 56 341 0.0 5.2 0.00 0.00 0.00 31 1007.5
20260503182523 56 66 1.7 5.2 0.00 0.00 0.00 32 1007.3
20260503182021 55 315 1.7 7.8 0.00 0.00 0.00 30 1007.5
20260503181518 56 22 2.6 8.7 0.00 0.00 0.00 31 1007.3
20260503181014 55 355 4.3 6.1 0.00 0.00 0.00 33 1007.3
20260503180512 55 338 5.2 7.8 0.00 0.00 0.00 36 1007.3
20260503180009 55 44 3.5 5.2 0.00 0.00 0.00 32 1007.2
20260503175506 56 356 1.7 9.6 0.00 0.00 0.00 35 1007.1
20260503175003 55 41 0.9 4.3 0.00 0.00 0.00 31 1007.2
20260503174500 54 71 0.0 5.2 0.00 0.00 0.00 38 1007.2
20260503173955 53 357 1.7 5.2 0.00 0.00 0.00 35 1007.3
20260503173451 54 76 1.7 6.1 0.00 0.00 0.00 36 1007.4
20260503172948 55 342 2.6 6.1 0.00 0.00 0.00 36 1007.3
20260503172446 53 86 2.6 5.2 0.00 0.00 0.00 35 1007.4
20260503171942 53 335 6.1 7.0 0.00 0.00 0.00 36 1007.5
20260503171439 52 341 5.2 6.1 0.00 0.00 0.00 40 1007.3
20260503170937 51 8 0.9 6.1 0.00 0.00 0.00 38 1007.5
20260503170432 51 6 4.3 7.8 0.00 0.00 0.00 38 1007.3